contact:dominique.lefevre@mio.osupytheas.fr, maurice.libes@osupytheas.fr, didier.mallarino@osupytheas.fr
Project:EMSO http://www.emso-fr.org/EMSO-France
Depth: 2436.0 m
Title:EMSO Ligure Ouest : Data MII capteur CSTAR
DateTime,Latitude,Longitude,Instrument_Serial,Reference_Counts,Signal_Counts,Corrected_Signal_raw_counts,Calculated_Beam_c_inverse_meters,Internal_thermistor_counts
DateTime,Latitude,Longitude,Instrument_Serial,Reference_Counts,Signal_Counts,Corrected_Signal_raw_counts,Calculated_Beam_c_inverse_meters,Internal_thermistor_counts
2020-01-01T00:01:38,42.805,6.029,CST-1368DR,7048,9880,15273,0.089,551
2020-01-01T00:04:40,42.805,6.029,CST-1368DR,7048,9879,15272,0.089,551
2020-01-01T00:07:41,42.805,6.029,CST-1368DR,7048,9879,15272,0.089,551
2020-01-01T00:10:43,42.805,6.029,CST-1368DR,7048,9879,15272,0.089,551
2020-01-01T00:13:45,42.805,6.029,CST-1368DR,7048,9879,15272,0.089,551
2020-01-01T00:16:46,42.805,6.029,CST-1368DR,7048,9879,15272,0.089,551
2020-01-01T00:19:48,42.805,6.029,CST-1368DR,7048,9879,15272,0.089,551
2020-01-01T00:22:50,42.805,6.029,CST-1368DR,7048,9878,15271,0.089,551
2020-01-01T00:25:51,42.805,6.029,CST-1368DR,7048,9878,15270,0.090,550
2020-01-01T00:28:53,42.805,6.029,CST-1368DR,7048,9879,15272,0.089,551
2020-01-01T00:31:55,42.805,6.029,CST-1368DR,7048,9878,15270,0.090,551
2020-01-01T00:34:56,42.805,6.029,CST-1368DR,7048,9876,15268,0.090,551
2020-01-01T00:37:58,42.805,6.029,CST-1368DR,7048,9879,15272,0.089,551
2020-01-01T00:41:00,42.805,6.029,CST-1368DR,7048,9879,15272,0.089,551
2020-01-01T00:44:01,42.805,6.029,CST-1368DR,7048,9878,15270,0.090,551
2020-01-01T00:47:03,42.805,6.029,CST-1368DR,7048,9878,15270,0.090,551
2020-01-01T00:50:04,42.805,6.029,CST-1368DR,7048,9878,15270,0.090,551
2020-01-01T00:53:06,42.805,6.029,CST-1368DR,7048,9877,15269,0.090,551
2020-01-01T00:56:08,42.805,6.029,CST-1368DR,7048,9878,15270,0.090,551
2020-01-01T00:59:10,42.805,6.029,CST-1368DR,7048,9877,15270,0.090,551
2020-01-01T01:02:11,42.805,6.029,CST-1368DR,7048,9877,15270,0.090,551
2020-01-01T01:05:13,42.805,6.029,CST-1368DR,7048,9876,15267,0.090,551
2020-01-01T01:08:15,42.805,6.029,CST-1368DR,7048,9877,15270,0.090,551
2020-01-01T01:11:16,42.805,6.029,CST-1368DR,7048,9878,15270,0.090,551
2020-01-01T01:14:18,42.805,6.029,CST-1368DR,7048,9878,15270,0.090,551
2020-01-01T01:17:20,42.805,6.029,CST-1368DR,7048,9877,15269,0.090,551
2020-01-01T01:20:21,42.805,6.029,CST-1368DR,7048,9877,15269,0.090,551
2020-01-01T01:23:23,42.805,6.029,CST-1368DR,7048,9877,15269,0.090,551
2020-01-01T01:26:25,42.805,6.029,CST-1368DR,7048,9878,15270,0.090,551
2020-01-01T01:29:26,42.805,6.029,CST-1368DR,7048,9877,15269,0.090,551
2020-01-01T01:32:28,42.805,6.029,CST-1368DR,7048,9877,15269,0.090,551
2020-01-01T01:35:30,42.805,6.029,CST-1368DR,7048,9877,15269,0.090,551
2020-01-01T01:38:31,42.805,6.029,CST-1368DR,7048,9877,15269,0.090,551
2020-01-01T01:41:33,42.805,6.029,CST-1368DR,7048,9877,15269,0.090,551
2020-01-01T01:44:35,42.805,6.029,CST-1368DR,7048,9877,15268,0.090,551
2020-01-01T01:47:36,42.805,6.029,CST-1368DR,7048,9875,15267,0.090,551
2020-01-01T01:50:38,42.805,6.029,CST-1368DR,7048,9877,15268,0.090,551
2020-01-01T01:53:40,42.805,6.029,CST-1368DR,7048,9876,15268,0.090,551
2020-01-01T01:56:42,42.805,6.029,CST-1368DR,7048,9877,15269,0.090,551
2020-01-01T01:59:44,42.805,6.029,CST-1368DR,7048,9877,15268,0.090,551
2020-01-01T02:02:45,42.805,6.029,CST-1368DR,7048,9876,15268,0.090,551
2020-01-01T02:05:47,42.805,6.029,CST-1368DR,7048,9877,15268,0.090,551
2020-01-01T02:08:49,42.805,6.029,CST-1368DR,7048,9875,15267,0.090,551
2020-01-01T02:11:50,42.805,6.029,CST-1368DR,7048,9876,15268,0.090,551
2020-01-01T02:14:52,42.805,6.029,CST-1368DR,7048,9876,15268,0.090,551
2020-01-01T02:17:53,42.805,6.029,CST-1368DR,7048,9877,15269,0.090,551
2020-01-01T02:20:55,42.805,6.029,CST-1368DR,7048,9877,15269,0.090,551
2020-01-01T02:23:57,42.805,6.029,CST-1368DR,7048,9877,15269,0.090,551
2020-01-01T02:26:58,42.805,6.029,CST-1368DR,7048,9876,15268,0.090,551
2020-01-01T02:30:00,42.805,6.029,CST-1368DR,7048,9876,15267,0.090,551
2020-01-01T02:33:02,42.805,6.029,CST-1368DR,7048,9876,15268,0.090,551
2020-01-01T02:36:03,42.805,6.029,CST-1368DR,7048,9876,15268,0.090,551
2020-01-01T02:39:05,42.805,6.029,CST-1368DR,7048,9876,15268,0.090,551
2020-01-01T02:42:07,42.805,6.029,CST-1368DR,7048,9869,15257,0.093,550
2020-01-01T02:45:08,42.805,6.029,CST-1368DR,7048,9877,15268,0.090,551
2020-01-01T02:48:10,42.805,6.029,CST-1368DR,7048,9877,15269,0.090,551
2020-01-01T02:51:12,42.805,6.029,CST-1368DR,7048,9876,15268,0.090,551
2020-01-01T02:54:13,42.805,6.029,CST-1368DR,7048,9875,15266,0.091,550
2020-01-01T02:57:15,42.805,6.029,CST-1368DR,7048,9877,15268,0.090,551
2020-01-01T03:00:17,42.805,6.029,CST-1368DR,7048,9876,15268,0.090,551
2020-01-01T03:03:18,42.805,6.029,CST-1368DR,7048,9876,15268,0.090,551
2020-01-01T03:06:20,42.805,6.029,CST-1368DR,7048,9875,15267,0.090,550
2020-01-01T03:09:21,42.805,6.029,CST-1368DR,7048,9876,15268,0.090,550
2020-01-01T03:12:23,42.805,6.029,CST-1368DR,7048,9877,15268,0.090,551
2020-01-01T03:15:25,42.805,6.029,CST-1368DR,7048,9876,15268,0.090,551
2020-01-01T03:18:27,42.805,6.029,CST-1368DR,7048,9876,15268,0.090,550
2020-01-01T03:21:28,42.805,6.029,CST-1368DR,7048,9876,15268,0.090,550
2020-01-01T03:24:30,42.805,6.029,CST-1368DR,7048,9877,15268,0.090,551
2020-01-01T03:27:31,42.805,6.029,CST-1368DR,7048,9876,15267,0.090,551
2020-01-01T03:30:33,42.805,6.029,CST-1368DR,7048,9877,15268,0.090,551
2020-01-01T03:33:35,42.805,6.029,CST-1368DR,7048,9876,15267,0.090,551
2020-01-01T03:36:36,42.805,6.029,CST-1368DR,7047,9876,15270,0.090,551
2020-01-01T03:39:38,42.805,6.029,CST-1368DR,7048,9876,15267,0.090,551
2020-01-01T03:42:40,42.805,6.029,CST-1368DR,7047,9877,15271,0.089,551
2020-01-01T03:45:41,42.805,6.029,CST-1368DR,7047,9876,15270,0.090,551
2020-01-01T03:48:43,42.805,6.029,CST-1368DR,7048,9876,15268,0.090,551
2020-01-01T03:51:45,42.805,6.029,CST-1368DR,7048,9876,15268,0.090,551
2020-01-01T03:54:46,42.805,6.029,CST-1368DR,7048,9875,15267,0.090,550
2020-01-01T03:57:48,42.805,6.029,CST-1368DR,7048,9877,15269,0.090,550
2020-01-01T04:00:50,42.805,6.029,CST-1368DR,7047,9875,15268,0.090,551
2020-01-01T04:03:52,42.805,6.029,CST-1368DR,7048,9876,15268,0.090,551
2020-01-01T04:06:53,42.805,6.029,CST-1368DR,7047,9877,15270,0.090,551
2020-01-01T04:09:55,42.805,6.029,CST-1368DR,7047,9875,15268,0.090,550
2020-01-01T04:12:57,42.805,6.029,CST-1368DR,7047,9876,15269,0.090,551
2020-01-01T04:15:58,42.805,6.029,CST-1368DR,7047,9876,15269,0.090,551
2020-01-01T04:19:00,42.805,6.029,CST-1368DR,7047,9875,15269,0.090,551
2020-01-01T04:22:02,42.805,6.029,CST-1368DR,7047,9876,15269,0.090,551
2020-01-01T04:25:03,42.805,6.029,CST-1368DR,7047,9875,15269,0.090,551
2020-01-01T04:28:05,42.805,6.029,CST-1368DR,7047,9875,15268,0.090,551
2020-01-01T04:31:07,42.805,6.029,CST-1368DR,7047,9876,15269,0.090,551
2020-01-01T04:34:09,42.805,6.029,CST-1368DR,7047,9874,15267,0.090,551
2020-01-01T04:37:10,42.805,6.029,CST-1368DR,7047,9875,15269,0.090,551
2020-01-01T04:40:12,42.805,6.029,CST-1368DR,7047,9876,15269,0.090,551
2020-01-01T04:43:13,42.805,6.029,CST-1368DR,7047,9876,15269,0.090,551
2020-01-01T04:46:15,42.805,6.029,CST-1368DR,7047,9876,15269,0.090,551
2020-01-01T04:49:17,42.805,6.029,CST-1368DR,7047,9875,15268,0.090,551
2020-01-01T04:52:19,42.805,6.029,CST-1368DR,7047,9876,15269,0.090,551
2020-01-01T04:55:20,42.805,6.029,CST-1368DR,7047,9876,15269,0.090,551
2020-01-01T04:58:22,42.805,6.029,CST-1368DR,7047,9875,15269,0.090,551
2020-01-01T05:01:24,42.805,6.029,CST-1368DR,7047,9875,15269,0.090,551
2020-01-01T05:04:25,42.805,6.029,CST-1368DR,7047,9875,15269,0.090,551
2020-01-01T05:07:27,42.805,6.029,CST-1368DR,7047,9875,15268,0.090,551
2020-01-01T05:10:29,42.805,6.029,CST-1368DR,7047,9875,15268,0.090,551
2020-01-01T05:13:30,42.805,6.029,CST-1368DR,7047,9875,15269,0.090,551
2020-01-01T05:16:32,42.805,6.029,CST-1368DR,7047,9875,15268,0.090,551
2020-01-01T05:19:33,42.805,6.029,CST-1368DR,7047,9875,15268,0.090,551
2020-01-01T05:22:35,42.805,6.029,CST-1368DR,7047,9874,15266,0.091,551
2020-01-01T05:25:37,42.805,6.029,CST-1368DR,7047,9875,15268,0.090,551
2020-01-01T05:28:39,42.805,6.029,CST-1368DR,7047,9875,15268,0.090,551
2020-01-01T05:31:40,42.805,6.029,CST-1368DR,7047,9875,15269,0.090,551
2020-01-01T05:34:42,42.805,6.029,CST-1368DR,7047,9874,15267,0.090,551
2020-01-01T05:37:44,42.805,6.029,CST-1368DR,7047,9875,15268,0.090,551
2020-01-01T05:40:45,42.805,6.029,CST-1368DR,7047,9874,15267,0.090,551
2020-01-01T05:43:47,42.805,6.029,CST-1368DR,7047,9874,15266,0.091,551
2020-01-01T05:46:49,42.805,6.029,CST-1368DR,7047,9874,15266,0.091,551
2020-01-01T05:49:50,42.805,6.029,CST-1368DR,7047,9875,15268,0.090,551
2020-01-01T05:52:52,42.805,6.029,CST-1368DR,7047,9874,15266,0.091,551
2020-01-01T05:55:54,42.805,6.029,CST-1368DR,7047,9873,15264,0.091,551
2020-01-01T05:58:55,42.805,6.029,CST-1368DR,7047,9873,15264,0.091,551
2020-01-01T06:01:57,42.805,6.029,CST-1368DR,7047,9870,15260,0.092,551
2020-01-01T06:04:59,42.805,6.029,CST-1368DR,7047,9872,15264,0.091,551
2020-01-01T06:08:00,42.805,6.029,CST-1368DR,7047,9871,15262,0.092,551
2020-01-01T06:11:02,42.805,6.029,CST-1368DR,7047,9870,15260,0.092,551
2020-01-01T06:14:04,42.805,6.029,CST-1368DR,7047,9871,15262,0.092,551
2020-01-01T06:17:05,42.805,6.029,CST-1368DR,7047,9872,15264,0.091,551
2020-01-01T06:20:07,42.805,6.029,CST-1368DR,7047,9871,15262,0.092,551
2020-01-01T06:23:08,42.805,6.029,CST-1368DR,7047,9874,15266,0.091,551
2020-01-01T06:26:10,42.805,6.029,CST-1368DR,7047,9874,15266,0.091,551
2020-01-01T06:29:12,42.805,6.029,CST-1368DR,7047,9873,15265,0.091,551
2020-01-01T06:32:13,42.805,6.029,CST-1368DR,7047,9874,15267,0.090,551
2020-01-01T06:35:15,42.805,6.029,CST-1368DR,7047,9874,15266,0.091,551
2020-01-01T06:38:17,42.805,6.029,CST-1368DR,7047,9874,15267,0.090,551
2020-01-01T06:41:18,42.805,6.029,CST-1368DR,7047,9870,15260,0.092,551
2020-01-01T06:44:20,42.805,6.029,CST-1368DR,7047,9873,15265,0.091,551
2020-01-01T06:47:22,42.805,6.029,CST-1368DR,7047,9872,15264,0.091,551
2020-01-01T06:50:23,42.805,6.029,CST-1368DR,7047,9873,15264,0.091,551
2020-01-01T06:53:25,42.805,6.029,CST-1368DR,7047,9873,15265,0.091,551
2020-01-01T06:56:27,42.805,6.029,CST-1368DR,7047,9873,15265,0.091,551
2020-01-01T06:59:28,42.805,6.029,CST-1368DR,7047,9873,15265,0.091,551
2020-01-01T07:02:30,42.805,6.029,CST-1368DR,7047,9873,15265,0.091,550
2020-01-01T07:05:32,42.805,6.029,CST-1368DR,7047,9873,15265,0.091,551
2020-01-01T07:08:33,42.805,6.029,CST-1368DR,7047,9873,15265,0.091,551
2020-01-01T07:11:35,42.805,6.029,CST-1368DR,7047,9873,15264,0.091,551
2020-01-01T07:14:37,42.805,6.029,CST-1368DR,7047,9872,15263,0.091,551
2020-01-01T07:17:38,42.805,6.029,CST-1368DR,7047,9874,15266,0.091,551
2020-01-01T07:20:40,42.805,6.029,CST-1368DR,7047,9872,15263,0.091,551
2020-01-01T07:23:42,42.805,6.029,CST-1368DR,7047,9873,15264,0.091,551
2020-01-01T07:26:43,42.805,6.029,CST-1368DR,7047,9873,15265,0.091,551
2020-01-01T07:29:45,42.805,6.029,CST-1368DR,7047,9873,15265,0.091,551
2020-01-01T07:32:46,42.805,6.029,CST-1368DR,7047,9872,15264,0.091,551
2020-01-01T07:35:48,42.805,6.029,CST-1368DR,7047,9872,15264,0.091,551
2020-01-01T07:38:50,42.805,6.029,CST-1368DR,7047,9870,15260,0.092,551
2020-01-01T07:41:51,42.805,6.029,CST-1368DR,7047,9871,15262,0.092,551
2020-01-01T07:44:53,42.805,6.029,CST-1368DR,7047,9872,15264,0.091,551
2020-01-01T07:47:55,42.805,6.029,CST-1368DR,7047,9870,15260,0.092,551
2020-01-01T07:50:56,42.805,6.029,CST-1368DR,7047,9872,15264,0.091,551
2020-01-01T07:53:58,42.805,6.029,CST-1368DR,7047,9873,15264,0.091,551
2020-01-01T07:57:00,42.805,6.029,CST-1368DR,7046,9873,15267,0.090,551
2020-01-01T08:00:01,42.805,6.029,CST-1368DR,7047,9872,15263,0.091,551
2020-01-01T08:03:03,42.805,6.029,CST-1368DR,7047,9873,15264,0.091,551
2020-01-01T08:06:04,42.805,6.029,CST-1368DR,7047,9873,15265,0.091,551
2020-01-01T08:09:06,42.805,6.029,CST-1368DR,7046,9872,15265,0.091,551
2020-01-01T08:12:08,42.805,6.029,CST-1368DR,7046,9872,15266,0.091,551
2020-01-01T08:15:09,42.805,6.029,CST-1368DR,7046,9868,15259,0.093,551
2020-01-01T08:18:11,42.805,6.029,CST-1368DR,7046,9858,15243,0.097,551
2020-01-01T08:21:13,42.805,6.029,CST-1368DR,7046,9871,15264,0.091,551
2020-01-01T08:24:15,42.805,6.029,CST-1368DR,7046,9869,15261,0.092,550
2020-01-01T08:27:16,42.805,6.029,CST-1368DR,7046,9873,15266,0.091,551
2020-01-01T08:30:18,42.805,6.029,CST-1368DR,7046,9873,15267,0.090,551
2020-01-01T08:33:20,42.805,6.029,CST-1368DR,7046,9872,15266,0.091,551
2020-01-01T08:36:21,42.805,6.029,CST-1368DR,7046,9871,15264,0.091,551
2020-01-01T08:39:23,42.805,6.029,CST-1368DR,7046,9872,15265,0.091,551
2020-01-01T08:42:25,42.805,6.029,CST-1368DR,7046,9873,15267,0.090,551
2020-01-01T08:45:26,42.805,6.029,CST-1368DR,7046,9872,15266,0.091,551
2020-01-01T08:48:28,42.805,6.029,CST-1368DR,7046,9871,15264,0.091,551
2020-01-01T08:51:30,42.805,6.029,CST-1368DR,7046,9872,15266,0.091,551
2020-01-01T08:54:31,42.805,6.029,CST-1368DR,7046,9870,15262,0.092,551
2020-01-01T08:57:33,42.805,6.029,CST-1368DR,7046,9869,15261,0.092,551
2020-01-01T09:00:35,42.805,6.029,CST-1368DR,7046,9871,15264,0.091,551
2020-01-01T09:03:36,42.805,6.029,CST-1368DR,7046,9872,15265,0.091,551
2020-01-01T09:06:38,42.805,6.029,CST-1368DR,7046,9871,15264,0.091,551
2020-01-01T09:09:40,42.805,6.029,CST-1368DR,7046,9871,15264,0.091,551
2020-01-01T09:12:41,42.805,6.029,CST-1368DR,7046,9870,15262,0.092,551
2020-01-01T09:15:43,42.805,6.029,CST-1368DR,7046,9871,15264,0.091,551
2020-01-01T09:18:45,42.805,6.029,CST-1368DR,7046,9872,15266,0.091,551
2020-01-01T09:21:46,42.805,6.029,CST-1368DR,7046,9871,15264,0.091,551
2020-01-01T09:24:48,42.805,6.029,CST-1368DR,7046,9869,15261,0.092,551
2020-01-01T09:27:50,42.805,6.029,CST-1368DR,7046,9871,15263,0.091,551
2020-01-01T09:30:51,42.805,6.029,CST-1368DR,7046,9871,15264,0.091,551
2020-01-01T09:33:53,42.805,6.029,CST-1368DR,7046,9872,15266,0.091,551
2020-01-01T09:36:55,42.805,6.029,CST-1368DR,7046,9872,15265,0.091,551
2020-01-01T09:39:56,42.805,6.029,CST-1368DR,7046,9871,15264,0.091,551
2020-01-01T09:42:58,42.805,6.029,CST-1368DR,7046,9871,15264,0.091,551
2020-01-01T09:46:00,42.805,6.029,CST-1368DR,7046,9871,15264,0.091,551
2020-01-01T09:49:01,42.805,6.029,CST-1368DR,7046,9871,15264,0.091,551
2020-01-01T09:52:03,42.805,6.029,CST-1368DR,7046,9870,15262,0.092,551
2020-01-01T09:55:05,42.805,6.029,CST-1368DR,7046,9868,15260,0.092,550
2020-01-01T09:58:07,42.805,6.029,CST-1368DR,7046,9870,15263,0.091,550
2020-01-01T10:01:08,42.805,6.029,CST-1368DR,7046,9870,15263,0.091,550
2020-01-01T10:04:10,42.805,6.029,CST-1368DR,7046,9871,15263,0.091,551
2020-01-01T10:07:12,42.805,6.029,CST-1368DR,7046,9870,15262,0.092,550
2020-01-01T10:10:13,42.805,6.029,CST-1368DR,7046,9871,15264,0.091,551
2020-01-01T10:13:15,42.805,6.029,CST-1368DR,7046,9871,15264,0.091,551
2020-01-01T10:16:16,42.805,6.029,CST-1368DR,7046,9870,15262,0.092,551
2020-01-01T10:19:18,42.805,6.029,CST-1368DR,7046,9871,15264,0.091,551
2020-01-01T10:22:20,42.805,6.029,CST-1368DR,7046,9871,15263,0.091,551
2020-01-01T10:25:22,42.805,6.029,CST-1368DR,7046,9871,15263,0.091,551
2020-01-01T10:28:23,42.805,6.029,CST-1368DR,7046,9870,15262,0.092,551
2020-01-01T10:31:25,42.805,6.029,CST-1368DR,7046,9871,15263,0.091,551
2020-01-01T10:34:26,42.805,6.029,CST-1368DR,7046,9870,15263,0.091,551
2020-01-01T10:37:28,42.805,6.029,CST-1368DR,7046,9870,15262,0.092,551
2020-01-01T10:40:30,42.805,6.029,CST-1368DR,7046,9869,15261,0.092,551
2020-01-01T10:43:31,42.805,6.029,CST-1368DR,7046,9870,15262,0.092,551
2020-01-01T10:46:33,42.805,6.029,CST-1368DR,7046,9868,15259,0.093,551
2020-01-01T10:49:35,42.805,6.029,CST-1368DR,7046,9868,15259,0.093,551
2020-01-01T10:52:36,42.805,6.029,CST-1368DR,7046,9868,15260,0.092,551
2020-01-01T10:55:38,42.805,6.029,CST-1368DR,7046,9869,15260,0.092,551
2020-01-01T10:58:40,42.805,6.029,CST-1368DR,7046,9869,15261,0.092,551
2020-01-01T11:01:41,42.805,6.029,CST-1368DR,7045,9870,15264,0.091,551
2020-01-01T11:04:43,42.805,6.029,CST-1368DR,7046,9869,15261,0.092,551
2020-01-01T11:07:45,42.805,6.029,CST-1368DR,7046,9870,15263,0.091,551
2020-01-01T11:10:46,42.805,6.029,CST-1368DR,7046,9870,15263,0.091,550
2020-01-01T11:13:48,42.805,6.029,CST-1368DR,7046,9870,15263,0.091,550
2020-01-01T11:16:50,42.805,6.029,CST-1368DR,7045,9869,15263,0.091,551
2020-01-01T11:19:51,42.805,6.029,CST-1368DR,7045,9870,15264,0.091,551
2020-01-01T11:22:53,42.805,6.029,CST-1368DR,7045,9864,15255,0.094,551
2020-01-01T11:25:54,42.805,6.029,CST-1368DR,7045,9869,15263,0.091,551
2020-01-01T11:28:56,42.805,6.029,CST-1368DR,7045,9870,15264,0.091,550
2020-01-01T11:31:58,42.805,6.029,CST-1368DR,7045,9870,15265,0.091,551
2020-01-01T11:34:59,42.805,6.029,CST-1368DR,7045,9870,15265,0.091,551
2020-01-01T11:38:01,42.805,6.029,CST-1368DR,7045,9870,15264,0.091,551
2020-01-01T11:41:03,42.805,6.029,CST-1368DR,7045,9867,15260,0.092,551
2020-01-01T11:44:05,42.805,6.029,CST-1368DR,7045,9870,15264,0.091,551
2020-01-01T11:47:06,42.805,6.029,CST-1368DR,7045,9870,15264,0.091,551
2020-01-01T11:50:08,42.805,6.029,CST-1368DR,7045,9869,15263,0.091,551
2020-01-01T11:53:10,42.805,6.029,CST-1368DR,7045,9868,15262,0.092,551
2020-01-01T11:56:11,42.805,6.029,CST-1368DR,7045,9870,15264,0.091,551
2020-01-01T11:59:13,42.805,6.029,CST-1368DR,7045,9868,15261,0.092,551
2020-01-01T12:02:15,42.805,6.029,CST-1368DR,7045,9869,15263,0.091,551
2020-01-01T12:05:16,42.805,6.029,CST-1368DR,7045,9869,15263,0.091,551
2020-01-01T12:08:18,42.805,6.029,CST-1368DR,7045,9868,15261,0.092,551
2020-01-01T12:11:20,42.805,6.029,CST-1368DR,7045,9869,15262,0.092,551
2020-01-01T12:14:21,42.805,6.029,CST-1368DR,7045,9867,15260,0.092,551
2020-01-01T12:17:23,42.805,6.029,CST-1368DR,7045,9867,15260,0.092,551
2020-01-01T12:20:25,42.805,6.029,CST-1368DR,7045,9870,15264,0.091,551
2020-01-01T12:23:26,42.805,6.029,CST-1368DR,7045,9868,15261,0.092,551
2020-01-01T12:26:28,42.805,6.029,CST-1368DR,7045,9868,15261,0.092,551
2020-01-01T12:29:29,42.805,6.029,CST-1368DR,7045,9869,15263,0.091,551
2020-01-01T12:32:31,42.805,6.029,CST-1368DR,7045,9866,15258,0.093,551
2020-01-01T12:35:33,42.805,6.029,CST-1368DR,7045,9868,15261,0.092,551
2020-01-01T12:38:34,42.805,6.029,CST-1368DR,7045,9868,15262,0.092,551
2020-01-01T12:41:36,42.805,6.029,CST-1368DR,7045,9868,15262,0.092,551
2020-01-01T12:44:38,42.805,6.029,CST-1368DR,7045,9869,15263,0.091,551
2020-01-01T12:47:39,42.805,6.029,CST-1368DR,7045,9868,15261,0.092,551
2020-01-01T12:50:41,42.805,6.029,CST-1368DR,7045,9869,15263,0.091,551
2020-01-01T12:53:43,42.805,6.029,CST-1368DR,7045,9864,15255,0.094,551
2020-01-01T12:56:44,42.805,6.029,CST-1368DR,7045,9869,15263,0.091,551
2020-01-01T12:59:46,42.805,6.029,CST-1368DR,7045,9870,15265,0.091,551
2020-01-01T13:02:48,42.805,6.029,CST-1368DR,7045,9871,15265,0.091,551
2020-01-01T13:05:49,42.805,6.029,CST-1368DR,7045,9870,15264,0.091,551
2020-01-01T13:08:51,42.805,6.029,CST-1368DR,7045,9871,15265,0.091,551
2020-01-01T13:11:53,42.805,6.029,CST-1368DR,7045,9872,15267,0.090,551
2020-01-01T13:14:54,42.805,6.029,CST-1368DR,7045,9870,15264,0.091,551
2020-01-01T13:17:56,42.805,6.029,CST-1368DR,7045,9869,15263,0.091,551
2020-01-01T13:20:58,42.805,6.029,CST-1368DR,7045,9872,15267,0.090,550
2020-01-01T13:23:59,42.805,6.029,CST-1368DR,7045,9871,15266,0.091,551
2020-01-01T13:27:01,42.805,6.029,CST-1368DR,7045,9873,15269,0.090,551
2020-01-01T13:30:02,42.805,6.029,CST-1368DR,7045,9873,15269,0.090,551
2020-01-01T13:33:04,42.805,6.029,CST-1368DR,7045,9872,15267,0.090,551
2020-01-01T13:36:06,42.805,6.029,CST-1368DR,7045,9872,15267,0.090,551
2020-01-01T13:39:07,42.805,6.029,CST-1368DR,7045,9870,15264,0.091,551
2020-01-01T13:42:09,42.805,6.029,CST-1368DR,7045,9871,15265,0.091,551
2020-01-01T13:45:11,42.805,6.029,CST-1368DR,7045,9871,15266,0.091,551
2020-01-01T13:48:12,42.805,6.029,CST-1368DR,7045,9865,15256,0.093,551
2020-01-01T13:51:14,42.805,6.029,CST-1368DR,7045,9870,15264,0.091,551
2020-01-01T13:54:16,42.805,6.029,CST-1368DR,7045,9870,15265,0.091,551
2020-01-01T13:57:17,42.805,6.029,CST-1368DR,7045,9869,15262,0.092,551
2020-01-01T14:00:19,42.805,6.029,CST-1368DR,7045,9870,15264,0.091,551
2020-01-01T14:03:21,42.805,6.029,CST-1368DR,7045,9871,15266,0.091,551
2020-01-01T14:06:22,42.805,6.029,CST-1368DR,7045,9870,15264,0.091,551
2020-01-01T14:09:24,42.805,6.029,CST-1368DR,7045,9868,15262,0.092,551
2020-01-01T14:12:26,42.805,6.029,CST-1368DR,7045,9871,15265,0.091,551
2020-01-01T14:15:27,42.805,6.029,CST-1368DR,7045,9871,15265,0.091,551
2020-01-01T14:18:29,42.805,6.029,CST-1368DR,7045,9870,15264,0.091,550
2020-01-01T14:21:31,42.805,6.029,CST-1368DR,7045,9871,15266,0.091,551
2020-01-01T14:24:32,42.805,6.029,CST-1368DR,7045,9870,15264,0.091,551
2020-01-01T14:27:34,42.805,6.029,CST-1368DR,7045,9869,15262,0.092,551
2020-01-01T14:30:36,42.805,6.029,CST-1368DR,7045,9868,15261,0.092,551
2020-01-01T14:33:37,42.805,6.029,CST-1368DR,7045,9870,15264,0.091,551
2020-01-01T14:36:39,42.805,6.029,CST-1368DR,7045,9867,15260,0.092,551
2020-01-01T14:39:41,42.805,6.029,CST-1368DR,7045,9870,15264,0.091,551
2020-01-01T14:42:42,42.805,6.029,CST-1368DR,7045,9870,15264,0.091,551
2020-01-01T14:45:44,42.805,6.029,CST-1368DR,7045,9869,15263,0.091,551
2020-01-01T14:48:46,42.805,6.029,CST-1368DR,7044,9856,15245,0.096,551
2020-01-01T14:51:47,42.805,6.029,CST-1368DR,7045,9870,15264,0.091,551
2020-01-01T14:54:49,42.805,6.029,CST-1368DR,7045,9870,15264,0.091,551
2020-01-01T14:57:51,42.805,6.029,CST-1368DR,7045,9869,15263,0.091,551
2020-01-01T15:00:52,42.805,6.029,CST-1368DR,7045,9870,15264,0.091,551
2020-01-01T15:03:54,42.805,6.029,CST-1368DR,7045,9870,15264,0.091,551
2020-01-01T15:06:56,42.805,6.029,CST-1368DR,7045,9870,15265,0.091,551
2020-01-01T15:09:58,42.805,6.029,CST-1368DR,7045,9868,15261,0.092,551
2020-01-01T15:12:59,42.805,6.029,CST-1368DR,7044,9867,15261,0.092,551
2020-01-01T15:16:01,42.805,6.029,CST-1368DR,7044,9869,15264,0.091,551
2020-01-01T15:19:03,42.805,6.029,CST-1368DR,7044,9868,15264,0.091,551
2020-01-01T15:22:04,42.805,6.029,CST-1368DR,7044,9869,15265,0.091,551
2020-01-01T15:25:06,42.805,6.029,CST-1368DR,7045,9870,15264,0.091,551
2020-01-01T15:28:07,42.805,6.029,CST-1368DR,7044,9868,15264,0.091,551
2020-01-01T15:31:09,42.805,6.029,CST-1368DR,7044,9868,15264,0.091,551
2020-01-01T15:34:11,42.805,6.029,CST-1368DR,7044,9871,15267,0.090,551
2020-01-01T15:37:12,42.805,6.029,CST-1368DR,7044,9869,15265,0.091,551
2020-01-01T15:40:14,42.805,6.029,CST-1368DR,7044,9869,15265,0.091,551
2020-01-01T15:43:16,42.805,6.029,CST-1368DR,7044,9869,15265,0.091,551
2020-01-01T15:46:17,42.805,6.029,CST-1368DR,7044,9867,15261,0.092,551
2020-01-01T15:49:19,42.805,6.029,CST-1368DR,7044,9870,15266,0.091,551
2020-01-01T15:52:21,42.805,6.029,CST-1368DR,7044,9869,15265,0.091,551
2020-01-01T15:55:22,42.805,6.029,CST-1368DR,7044,9869,15264,0.091,551
2020-01-01T15:58:24,42.805,6.029,CST-1368DR,7044,9868,15264,0.091,551
2020-01-01T16:01:26,42.805,6.029,CST-1368DR,7044,9869,15265,0.091,551
2020-01-01T16:04:27,42.805,6.029,CST-1368DR,7044,9869,15265,0.091,551
2020-01-01T16:07:29,42.805,6.029,CST-1368DR,7044,9869,15264,0.091,551
2020-01-01T16:10:31,42.805,6.029,CST-1368DR,7044,9869,15265,0.091,551
2020-01-01T16:13:32,42.805,6.029,CST-1368DR,7044,9866,15260,0.092,551
2020-01-01T16:16:34,42.805,6.029,CST-1368DR,7044,9867,15262,0.092,551
2020-01-01T16:19:36,42.805,6.029,CST-1368DR,7044,9869,15264,0.091,551
2020-01-01T16:22:37,42.805,6.029,CST-1368DR,7044,9868,15263,0.091,551
2020-01-01T16:25:39,42.805,6.029,CST-1368DR,7044,9868,15263,0.091,551
2020-01-01T16:28:41,42.805,6.029,CST-1368DR,7044,9868,15263,0.091,551
2020-01-01T16:31:42,42.805,6.029,CST-1368DR,7044,9869,15265,0.091,551
2020-01-01T16:34:44,42.805,6.029,CST-1368DR,7044,9868,15263,0.091,551
2020-01-01T16:37:45,42.805,6.029,CST-1368DR,7044,9869,15265,0.091,551
2020-01-01T16:40:47,42.805,6.029,CST-1368DR,7044,9867,15261,0.092,551
2020-01-01T16:43:49,42.805,6.029,CST-1368DR,7044,9869,15264,0.091,551
2020-01-01T16:46:50,42.805,6.029,CST-1368DR,7044,9869,15264,0.091,551
2020-01-01T16:49:52,42.805,6.029,CST-1368DR,7044,9869,15265,0.091,551
2020-01-01T16:52:54,42.805,6.029,CST-1368DR,7044,9869,15264,0.091,551